Location: Azul
(36.7830°S, 59.8500°W)
Time: 04:33:36
(UTC-03:00)

First-Move - Visible Passes

Search period start: 03 October 2023 00:00
Search period end: 13 October 2023 00:00
Orbit: 556 x 628 km, 97.7° (Epoch: 02 October)

Date Brightness Start Highest point End Pass type
(mag) Time Alt. Az. Time Alt. Az. Time Alt. Az.
09 Oct ? 02:51:54 10° SSE 02:51:54 10° SSE 02:51:55 10° SSE visible
10 Oct ? 03:00:18 12° SSE 03:00:18 12° SSE 03:00:41 10° SSE visible
11 Oct ? 03:08:41 14° SSE 03:08:41 14° SSE 03:09:23 10° S visible
12 Oct ? 03:17:02 16° SSE 03:17:02 16° SSE 03:17:58 10° S visible
